Home > Weather > Provincetown > Past weeks

Flag for U.S.A. Weather for the Past 2 Weeks in Provincetown, Massachusetts, U.S.A.

Now
29 °F

Light snow. Ice fog.


Feels Like: 15 °F
Forecast: 31 / 34 °F
Wind: 24 mph from North

Location: Provincetown Weather Reporting Station

Current Time: Feb 8, 2016 at 10:53:53 PM

Latest Report: Feb 8, 2016 at 9:56 PM


Visibility: 2 mi

Pressure: 29.72 "Hg

Humidity: 93%

Dew point: 27 °F

Location of ProvincetownLocation

Historic Weather in Provincetown — Graph

°F

Provincetown Temperature Yesterday

Maximum temperature yesterday: 41 °F (at 12:56 PM)
Minimum temperature yesterday: 33 °F (at 6:56 AM)
Average temperature yesterday: 38 °F

High & Low Weather Summary for the Past Weeks

 TemperatureHumidityPressure
High52 °F (Feb 1, 11:56 AM)100% (Feb 3, 11:56 PM)30.42 "Hg (Feb 3, 11:56 PM)
Low23 °F (Jan 28, 5:56 AM)44% (Jan 24, 8:35 PM)29.34 "Hg (Jan 29, 12:56 PM)
Average39 °F78%29.99 "Hg
* Reported Jan 24 8:35 PM — Feb 8 8:56 PM, Provincetown, Weather by CustomWeather, © 2016

Note: Actual official high and low records may vary slightly from our data, if they occured in-between our weather recording intervals... More about our weather records

Advertising

Provincetown Weather History for the Previous 24 Hours

 ConditionsComfort  
Time TempWeatherWind HumidityBarometerVisibility
8:56 PM
Mon, Feb 8
30 °FLight snow. Ice fog.23 mph92%29.71 "Hg1 mi
7:56 PM30 °FLight snow. Ice fog.23 mph92%29.70 "Hg1 mi
6:56 PM30 °FLight snow. Ice fog.28 mph92%29.69 "Hg2 mi
5:56 PM31 °FLight snow. Ice fog.25 mph89%29.67 "Hg2 mi
4:56 PM31 °FLight snow. Ice fog.23 mph89%29.64 "Hg4 mi
3:56 PM31 °FLight snow. Ice fog.29 mph92%29.61 "Hg2 mi
2:56 PM31 °FLight snow. Ice fog.31 mph92%29.60 "Hg1 mi
1:56 PM31 °FSnow. Ice fog.35 mph92%29.61 "Hg1 mi
12:56 PM31 °FHeavy snow. Ice fog.25 mph96%29.64 "Hg0 mi
11:56 AM30 °FHeavy snow. Ice fog.31 mph96%29.69 "Hg0 mi
10:56 AM30 °FHeavy snow. Ice fog.28 mph96%29.75 "Hg0 mi
9:56 AM31 °FLight snow. Ice fog.29 mph85%29.76 "Hg1 mi
8:59 AM30 °FLight snow. Ice fog.29 mph93%29.78 "Hg1 mi
7:56 AM32 °FLight snow. Mostly cloudy.28 mph75%29.77 "Hg2 mi
6:56 AM34 °FLight rain. Mostly cloudy.30 mph73%29.79 "Hg9 mi
5:56 AM35 °FMostly cloudy.31 mph70%29.81 "Hg9 mi
4:56 AM35 °FOvercast.36 mph67%29.79 "Hg10 mi
3:56 AM36 °FOvercast.31 mph70%29.85 "Hg10 mi
2:56 AM37 °FOvercast.29 mph65%29.88 "Hg10 mi
1:56 AM38 °FOvercast.28 mph70%29.90 "Hg10 mi
12:56 AM39 °FMostly cloudy.24 mph70%29.95 "Hg10 mi
11:56 PM
Sun, Feb 7
39 °FPassing clouds.23 mph73%30.01 "Hg10 mi
10:56 PM39 °FPassing clouds.18 mph73%30.03 "Hg10 mi
Weather by CustomWeather, © 2016

See weather overviewHow to use our weather pages